Regional Weather Roundup
Issued by NWS

Current Version | Previous Version | Text Only | Print | Product List | Glossary On
Versions: 1 2 3 4 5 6 7 8 9 10 11 12 13 14 15 16 17 18 19 20 21 22 23 24 25 26 27 28 29 30 31 32 33 34 35 36 37 38 39 40 41 42 43 44 45 46 47 48 49 50
354
ASUS43 KMKX 191700
RWRWI

WISCONSIN REGIONAL WEATHER ROUNDUP
NATIONAL WEATHER SERVICE MILWAUKEE/SULLIVAN WI
1200 PM CDT MON APR 19 2021

NOTE: "FAIR" INDICATES FEW OR NO CLOUDS BELOW 12,000 FEET WITH NO
SIGNIFICANT WEATHER AND/OR OBSTRUCTIONS TO VISIBILITY.

WIZ001-002-006>008-014>016-023>028-191800-
NORTHWEST WISCONSIN

CITY           SKY/WX    TMP DP  RH WIND       PRES   REMARKS
SUPERIOR ARPT  CLOUDY    35  19  51 N15       29.96S WCI  26
ASHLAND        FLURRIES  33  26  75 NW16G24   29.92R WCI  23
HAYWARD        CLOUDY    34  20  56 N12G21    29.91R WCI  25
SIREN          CLOUDY    34  22  63 NW10G22   29.97R WCI  26
CUMBERLAND     FLURRIES  32  25  74 NW17G23   29.93S WCI  21
RICE LAKE      FLURRIES  34  27  75 NW14G22   29.94S WCI  25
CHETEK         CLOUDY    35  26  68 NW9       29.92S WCI  28
LADYSMITH        N/A     35  26  69 NW13G22   29.90S WCI  26
EAU CLAIRE     PTSUNNY   39  22  50 N14G24    29.91S WCI  31
MENOMONIE      CLOUDY    35  23  62 W18       29.93S WCI  24
NEW RICHMOND   CLOUDY    37  20  50 N18       29.96S WCI  27
OSCEOLA        CLOUDY    37  23  56 NW14G21   30.00S WCI  28
$$

WIZ003>005-009-010-017-018-191800-
NORTH CENTRAL WISCONSIN

CITY           SKY/WX    TMP DP  RH WIND       PRES   REMARKS
MANITOWISH WTR LGT SNOW  28  23  84 NW15G25   29.82R WCI  16
ARBOR VITAE    CLOUDY    32  23  69 N15G22    29.80R WCI  21
WOODRUFF       CLOUDY    32  23  69 N15G22    29.80R WCI  21
RHINELANDER    CLOUDY    32  21  64 NW13G28   29.80R WCI  22
EAGLE RIVER    CLOUDY    31  21  67 NW23G29   29.78R WCI  18
LAND O LAKES   LGT SNOW  29  24  79 N9        29.80R WCI  21
PHILLIPS       CLOUDY    32  22  67 N8G22     29.84R WCI  25
TOMAHAWK       CLOUDY    33  20  58 NW13      29.82S WCI  24
MEDFORD        LGT SNOW  31  27  85 NW15G24   29.83R WCI  20
MERRILL        CLOUDY    36  23  60 NW12G21   29.81S WCI  27
$$

WIZ029-030-035-036-043>047-191800-
CENTRAL WISCONSIN

CITY           SKY/WX    TMP DP  RH WIND       PRES   REMARKS
WAUSAU         CLOUDY    41  23  48 NW18G32   29.80S
MOSINEE        CLOUDY    37  25  60 NW20G26   29.83R WCI  27
MARSHFIELD     NOT AVBL
STEVENS POINT  CLOUDY    35  25  66 W13G23    29.84R WCI  27
WAUPACA        PTSUNNY   43  23  45 NW13G21   29.83R
WAUTOMA        CLOUDY    39  26  59 W18       29.85R WCI  30
WISC RAPIDS    CLOUDY    39  25  57 NW17G29   29.86R WCI  30
CAMP DOUGLAS   PTSUNNY   39  28  65 W12G21    29.88S WCI  32
$$

WIZ011>013-019>022-031-037>040-048>050-191800-
NORTHEAST WISCONSIN

CITY           SKY/WX    TMP DP  RH WIND       PRES   REMARKS
ANTIGO         CLOUDY    33  23  67 W21G26    29.79R WCI  21
SHAWANO        CLOUDY    41  24  52 W17G24    29.79R
OCONTO         CLOUDY    40  24  51 W15G21    29.77R WCI  32
STURGEON BAY   CLOUDY    40  26  57 W15G24    29.76R WCI  32
GREEN BAY      CLOUDY    42  25  50 NW20G29   29.79R
MANITOWOC      CLOUDY    43  26  51 NW18G31   29.80R
APPLETON       CLOUDY    39  19  45 W20G29    29.80R WCI  30
CLINTONVILLE   CLOUDY    40  21  47 NW20      29.81R WCI  30
OSHKOSH        CLOUDY    40  25  55 NW16G28   29.82R WCI  31
$$

WIZ032>034-041-042-053>061-191800-
SOUTHWEST WISCONSIN

CITY           SKY/WX    TMP DP  RH WIND       PRES   REMARKS
LA CROSSE      CLOUDY    40  23  50 NW18G25   29.93S WCI  31
SPARTA           N/A     37  26  64 W14G24    29.92S WCI  28
VIROQUA        CLOUDY    35  28  75 NW15      29.91R WCI  26
BOSCOBEL       CLOUDY    42  26  53 NW15G22   29.93R
PRAIRIE DU CHI PTSUNNY   42  24  49 NW12      29.94S
PLATTEVILLE    CLOUDY    41  29  63 NW13G18   29.91S
$$

WIZ056-057-062-063-064-067-068-191800-
SOUTH CENTRAL WISCONSIN

CITY           SKY/WX    TMP DP  RH WIND       PRES   REMARKS
REEDSBURG      CLOUDY    37  26  63 NW14G20   29.88F WCI  29
BARABOO/DELLS  CLOUDY    37  26  63 W12       29.87F WCI  29
LONE ROCK      PTSUNNY   43  25  49 W17G25    29.90F
MINERAL POINT  CLOUDY    41  27  56 NW10G18   29.89S
MADISON        CLOUDY    38  25  59 NW14      29.88S WCI  30
MIDDLETON      CLOUDY    40  27  60 NW10      29.88F WCI  33
WATERTOWN      CLOUDY    39  28  64 NW17G25   29.86S WCI  29
MONROE         PTSUNNY   41  25  51 NW14G22   29.87S
JANESVILLE     CLOUDY    45  30  57 NW14G21   29.87S
$$

WIZ051-052-058>065-066-070>072-191800-
SOUTHEAST WISCONSIN

CITY           SKY/WX    TMP DP  RH WIND       PRES   REMARKS
MILWAUKEE      CLOUDY    44  29  55 NW14      29.84R
WAUKESHA       CLOUDY    37  28  70 W15G28    29.86R WCI  28
MILWAUKEE/TIMM CLOUDY    41  28  60 NW13G23   29.85R
RACINE         CLOUDY    44  31  60 NW15G28   29.85R
KENOSHA        CLOUDY    47  33  58 NW15G24   29.84R
FOND DU LAC    CLOUDY    42  25  50 W18G26    29.83R
SHEBOYGAN      CLOUDY    43  29  57 W15G28    29.81R
WEST BEND      CLOUDY    37  30  75 NW14G24   29.83R WCI  29
JUNEAU         CLOUDY    38  28  69 W10G16    29.86R WCI  31
$$

LSZ147-162-191800-
LAKE SUPERIOR

STATION/POSITION TIME  TEMP    WIND        PRES    WAVE
                       AIR SEA DIR/SP/G            HT/PER
                 (UTC) (F)     (DEG/KT/KT) (MB)    (FT/S)
DEVILS ISLAND    1600   28     340/ 21/ 26 1013.4R
PORT WING        1640   32     330/ 16/ 19 1014.2R
SAXON HARBOR     1630   30     340/ 19/ 24 1012.2R
$$

LMZ867-665-643>646-191800-
LAKE MICHIGAN

STATION/POSITION TIME  TEMP    WIND        PRES    WAVE
                       AIR SEA DIR/SP/G            HT/PER
                 (UTC) (F)     (DEG/KT/KT) (MB)    (FT/S)
CHAMBERS ISLAND  1640   41     260/  8/ 13   N/A
NORTHPORT PIER   1630   39     280/ 14/ 22 1007.8R
KEWAUNEE LAKESHO 1606   41     290/ 11/ 15 1007.6
SHEBOYGAN LAKESH 1600   41     280/ 19/ 22   N/A
PORT WASHINGTON  1640   42     300/ 11/ 18 1011.2R
ATWATER BUOY     1630   42 42  270/ 12/ 17 1010.4R   1/ 2
MILWAUKEE LAKESH 1630   42     290/ 11/ 17   N/A
KENOSHA   LAKESH 1600   46     320/ 14/ 18 1010.2
$$

TC  - TEMPERATURE IN CELSIUS
VSB - VISIBILITY IN STATUTE MILES
WCI - WIND CHILL INDEX
HX  - HEAT INDEX





USA.gov is the U.S. government's official web portal to all federal, state and local government web resources and services.